Wind_Speed
27 26 25 24 23 21 16 14 13 14 15 11 8 11 10 9 11 12 11 6 6 7 8 9 6 6 6 8 9 9 5 6 6 8 8 6 4 3 3 3 3 5 7 7 7 7 7 5 5
27 28 27 28 25 20 18 15 16 14 14 13 8 10 10 7 8 10 10 7 6 7 7 10 6 6 7 9 11 11 10 9 11 10 6 4 3 4 3 2 3 6 6 7 6 5 4 4 4
27 29 30 30 27 22 19 17 17 14 13 12 8 9 10 7 7 8 8 6 5 6 7 9 9 12 13 18 21 18 15 13 12 8 5 3 3 2 1 1 4 5 7 6 5 2 2 2 2
30 30 30 31 28 24 22 19 16 14 13 10 8 7 8 6 5 6 5 4 4 7 10 12 13 14 14 15 18 19 17 13 9 7 5 3 2 1 1 2 3 5 5 4 2 0 1 1 2
25 31 31 31 28 26 23 20 14 13 13 9 6 7 7 7 4 4 2 2 5 7 9 14 14 10 9 13 14 15 15 13 10 8 5 2 2 0 1 2 3 3 3 3 2 3 4 3 4
23 22 28 31 29 25 23 18 12 11 12 12 7 7 6 8 4 2 1 3 6 7 10 12 13 9 8 9 11 11 11 10 8 7 5 3 0 1 2 2 2 2 3 4 5 6 6 6 5
24 21 24 32 29 24 22 16 13 9 11 13 8 6 7 8 4 2 1 4 6 7 9 9 10 10 8 10 12 11 9 8 6 6 5 5 3 2 3 4 4 4 5 7 7 8 8 8 10
24 21 23 27 25 24 21 18 16 12 11 11 8 6 7 6 5 4 1 5 6 8 10 10 10 8 10 10 11 10 9 7 6 5 5 5 5 5 6 6 7 6 7 9 9 9 9 9 12
25 22 23 25 23 23 22 20 19 16 11 10 9 8 9 6 4 6 6 5 9 10 9 9 9 8 8 10 11 8 8 8 7 5 7 7 7 6 7 9 9 10 10 9 9 9 10 11 13
26 22 25 28 23 23 24 23 21 17 14 13 10 9 10 7 6 6 9 7 7 11 11 10 9 10 10 9 11 13 10 9 9 9 9 9 11 10 10 11 11 12 12 10 11 11 12 14 15
28 24 27 28 25 24 22 25 25 21 17 15 12 11 11 9 8 6 9 11 9 10 14 12 12 11 10 10 13 14 14 14 13 13 14 13 13 14 13 13 13 14 14 13 12 13 14 15 16
30 30 30 28 27 25 24 24 24 24 21 18 15 13 11 11 9 8 9 11 13 12 12 13 15 15 15 14 15 16 16 16 15 14 15 15 16 16 16 16 16 15 16 15 15 16 15 16 16
35 35 35 31 28 27 26 23 22 24 23 22 20 18 14 13 11 10 10 10 12 15 14 13 14 13 13 12 13 13 13 15 15 16 15 16 17 18 18 18 18 18 18 18 18 18 17 18 19
40 38 41 36 31 26 26 24 20 24 25 24 23 22 18 15 14 13 11 11 11 15 18 15 14 15 14 14 14 13 13 14 15 15 15 16 18 20 21 21 21 21 21 22 22 22 22 22 22
43 42 42 42 36 32 29 26 21 25 26 25 25 22 21 17 15 14 13 12 13 14 16 18 16 15 14 14 15 15 16 16 18 17 16 16 18 19 21 22 23 23 24 25 26 25 25 26 26
45 45 46 43 41 35 34 25 25 24 23 25 24 21 22 21 19 17 16 14 14 15 15 15 17 19 18 17 16 17 18 17 19 18 16 18 18 20 21 22 23 25 26 27 28 28 28 29 30
48 48 47 45 44 39 37 27 30 25 20 25 24 23 22 22 20 23 21 18 15 14 15 15 16 18 19 19 18 18 19 19 17 18 19 19 20 20 21 23 24 26 27 28 30 32 32 33 34
46 48 47 44 44 42 37 28 33 32 26 22 24 22 21 20 23 24 22 21 18 17 16 16 17 19 18 18 18 20 19 19 18 18 18 18 20 21 23 24 25 26 28 30 31 33 34 34 35
41 44 45 43 45 45 39 32 36 35 31 20 21 21 20 21 25 18 17 21 22 21 20 19 18 19 19 19 19 20 19 17 18 19 18 20 22 23 24 24 25 26 30 32 33 34 36 36 37
49 42 44 42 44 48 45 39 39 40 38 24 24 22 20 21 18 17 20 21 23 24 24 22 22 20 23 23 23 21 20 17 18 19 21 23 22 22 23 25 27 29 31 34 36 36 37 38 39
52 45 43 44 47 49 49 48 43 42 42 30 28 26 23 21 21 20 19 18 19 22 26 27 27 26 25 26 24 22 19 18 20 22 22 22 22 23 25 27 30 31 33 36 37 39 39 41 43
43 52 47 47 50 51 52 55 45 43 41 36 31 28 25 25 26 26 22 19 20 22 23 26 30 29 29 28 25 25 24 22 24 24 24 26 26 28 29 31 33 35 37 38 40 42 43 43 46
42 47 48 51 55 56 56 61 52 47 45 39 28 31 32 30 29 26 23 19 19 23 22 21 22 22 25 25 27 27 26 26 28 27 28 29 30 31 33 36 38 39 41 42 44 46 47 47 48
44 47 45 49 52 60 57 61 64 49 46 38 35 33 34 34 31 27 27 21 19 22 21 23 22 22 21 20 21 24 27 30 30 31 31 33 34 35 37 41 43 44 45 47 48 50 51 51 52
45 39 37 47 53 59 60 65 67 54 47 39 40 38 35 34 31 28 27 25 22 21 24 23 23 22 21 20 18 18 22 24 26 29 31 33 37 40 42 45 47 50 52 52 53 54 55 55 56
53 50 51 49 53 54 51 56 65 63 46 38 41 37 36 32 32 30 29 27 26 25 25 25 24 27 26 23 22 22 23 26 28 31 34 38 41 44 46 48 51 52 53 55 56 57 57 57 56
67 65 48 50 51 55 60 56 58 63 52 45 40 38 37 36 36 31 30 30 29 30 29 29 28 28 28 28 29 29 30 32 34 37 40 42 44 45 47 49 51 53 53 53 54 55 56 58 59
69 66 68 62 57 56 59 57 57 53 52 44 45 43 38 37 35 33 33 33 34 33 34 34 32 33 32 34 34 36 38 39 41 43 43 44 46 47 49 51 53 54 54 52 53 55 58 58 58
55 64 68 66 64 63 60 59 50 50 46 46 44 44 41 40 37 38 39 37 35 35 35 37 38 38 38 38 40 41 43 44 45 46 46 47 49 50 51 52 54 55 58 58 59 58 60 61 62
56 61 62 68 66 67 68 62 54 52 49 46 46 45 44 41 39 37 35 36 37 37 37 39 40 41 42 43 46 48 48 48 48 47 47 48 48 50 51 51 52 53 56 56 58 59 60 61 60
Wind_Direction
231 231 239 244 249 254 261 274 286 295 297 309 331 343 342 2 11 15 18 35 71 116 150 154 156 125 127 142 151 144 125 114 113 107 104 101 79 74 85 106 108 112 113 114 110 104 93 83 77
240 238 239 243 248 253 258 265 275 286 293 295 323 332 341 354 6 25 22 30 95 110 151 160 150 129 136 134 146 151 135 122 114 109 104 81 50 52 72 94 111 120 116 118 116 108 89 75 86
245 245 242 245 246 249 251 260 272 283 288 287 308 325 333 343 355 33 24 21 103 123 144 144 135 130 118 117 124 128 130 127 116 114 106 75 45 41 37 138 140 131 129 133 123 100 59 73 81
240 244 243 246 245 247 253 262 272 274 273 274 293 312 322 318 339 32 35 31 108 139 139 139 140 123 129 126 128 133 130 128 124 123 124 110 110 112 225 165 152 144 143 143 157 342 311 350 351
234 239 242 246 247 247 251 261 266 272 273 264 272 295 312 303 312 35 59 73 128 149 145 145 148 139 133 137 132 139 136 137 137 139 140 113 84 6 245 198 170 162 179 206 257 296 309 322 330
234 238 240 244 246 245 246 253 258 268 265 262 251 283 303 294 295 2 150 154 158 159 160 160 160 152 142 141 151 152 152 151 145 144 142 134 120 282 261 225 217 225 238 259 291 311 320 321 328
229 235 230 236 241 236 241 242 248 263 255 260 251 266 285 285 279 266 168 177 189 184 175 176 177 172 160 154 146 154 168 166 167 161 162 174 187 259 271 255 249 255 282 300 309 321 325 323 316
229 228 229 232 232 231 235 236 233 246 242 244 256 254 269 284 275 244 232 201 196 195 195 181 169 160 156 157 170 174 182 196 217 206 214 225 219 246 256 243 244 260 286 299 318 326 321 313 307
228 228 232 232 227 230 233 237 234 234 236 245 248 254 260 267 255 234 224 210 203 215 206 196 186 181 177 173 175 205 204 213 229 249 269 256 238 243 260 261 267 276 290 305 315 315 309 303 303
222 222 222 227 223 229 237 238 243 237 228 236 238 246 259 253 242 221 227 221 221 219 227 226 226 211 207 210 198 194 218 240 248 248 247 253 246 245 248 256 261 271 287 301 309 310 307 306 310
224 223 222 228 224 232 240 241 243 244 235 236 234 234 248 256 251 236 222 226 222 224 225 225 232 233 237 246 237 229 227 222 239 262 268 263 256 251 251 253 256 266 277 283 291 297 300 307 315
219 225 227 224 223 226 234 240 241 242 243 235 236 233 241 253 255 254 238 230 224 228 229 224 227 232 247 248 243 240 239 238 241 250 258 263 267 262 261 261 260 261 266 271 279 287 297 304 309
221 223 229 227 226 226 233 241 243 241 241 240 232 231 234 246 254 256 255 244 236 233 234 224 229 230 233 235 244 242 245 250 251 255 262 270 270 262 260 260 262 265 268 270 274 282 291 302 311
224 223 231 227 226 227 235 237 243 246 239 239 237 235 232 237 250 253 255 251 238 237 231 232 226 225 224 229 237 248 250 257 261 259 260 257 258 258 254 256 261 264 266 269 275 282 291 297 303
227 226 230 233 230 229 237 238 239 239 237 241 240 244 247 242 239 240 249 249 247 242 236 233 227 236 227 230 239 247 255 255 262 261 258 257 257 258 259 264 271 274 273 273 277 284 291 295 299
230 228 231 234 232 229 235 234 241 241 242 247 239 235 244 244 240 238 243 245 243 246 246 248 244 233 236 237 242 247 250 252 261 259 257 253 252 253 259 268 273 276 275 277 281 284 285 286 290
231 230 233 238 239 234 235 229 244 245 239 241 238 236 236 244 244 241 241 244 247 246 249 247 249 249 244 243 242 247 250 252 254 260 259 259 260 264 267 271 274 277 279 279 279 281 284 287 291
235 234 235 241 245 240 236 231 242 246 237 238 242 245 242 237 240 242 243 246 243 247 249 247 247 253 250 246 245 249 252 257 259 262 264 266 262 261 265 269 274 278 282 282 282 285 288 290 291
232 235 236 239 244 245 239 226 235 242 240 233 235 238 237 228 236 241 245 246 243 243 245 246 246 251 255 252 252 252 254 257 258 260 263 261 262 265 271 278 280 279 279 283 288 291 293 294 295
231 235 236 242 247 247 242 226 231 238 246 235 234 241 233 228 234 231 232 241 242 240 242 246 244 245 249 249 250 254 256 257 258 259 258 259 268 274 276 277 279 282 285 287 289 291 294 295 295
232 234 240 246 245 248 246 237 230 237 245 242 242 239 237 237 239 233 236 240 248 249 240 238 244 245 248 254 257 257 261 259 257 259 267 272 272 272 274 277 279 282 284 286 289 291 293 294 295
233 240 245 246 244 245 248 243 234 237 244 243 240 241 236 236 242 248 248 247 247 248 251 252 243 242 246 250 257 260 260 258 257 261 267 271 274 278 280 282 283 284 286 289 290 290 292 293 294
240 238 240 243 243 241 241 246 228 236 239 242 237 239 238 236 236 243 248 244 242 249 254 260 260 262 261 260 254 257 260 260 261 265 268 272 275 279 283 283 283 283 285 287 288 290 291 293 294
236 229 233 240 244 242 238 242 236 229 238 238 238 239 241 242 239 235 242 239 245 249 250 257 259 256 254 257 263 259 258 260 263 266 270 273 277 280 280 280 281 284 285 285 286 288 290 293 295
223 220 232 241 243 243 240 239 238 232 234 236 237 243 243 245 245 242 241 246 245 247 242 247 253 261 262 263 258 254 259 261 260 264 268 271 272 274 276 279 282 283 284 286 288 289 292 294 297
227 246 247 255 255 249 260 246 243 246 238 243 240 242 246 248 248 249 248 250 252 251 249 246 248 254 260 264 265 264 269 262 259 257 259 263 271 276 278 281 283 286 288 288 289 290 292 294 296
232 237 244 250 255 251 252 244 242 244 240 240 242 239 243 249 251 250 252 252 248 254 254 250 248 253 258 260 265 269 268 263 262 263 263 266 272 278 282 285 287 288 289 292 293 294 295 296 297
238 242 246 244 247 251 252 251 247 245 247 238 243 243 243 245 249 251 250 249 253 256 255 257 259 258 256 259 261 262 266 268 268 268 272 274 277 281 283 286 288 290 292 293 293 295 296 296 295
250 245 245 247 245 248 249 251 250 252 254 236 239 243 244 248 249 248 249 252 255 255 256 258 261 260 262 263 265 266 266 267 270 272 274 275 276 278 281 285 287 289 291 292 292 292 291 291 292
243 244 248 247 251 255 253 256 265 264 270 256 238 241 241 244 248 249 251 252 253 254 256 258 259 261 265 270 271 272 274 276 278 279 280 281 283 284 285 286 287 286 287 288 288 287 288 289 291
Height
5871 5872 5873 5873 5876 5876 5878 5879 5879 5880 5879 5879 5880 5878 5877 5875 5873 5873 5869 5867 5867 5867 5869 5869 5869 5870 5872 5872 5873 5875 5877 5878 5879 5880 5881 5881 5882 5882 5881 5881 5882 5881 5881 5881 5881 5881 5880 5880 5879
5868 5870 5871 5871 5873 5875 5877 5877 5877 5879 5879 5879 5879 5878 5876 5876 5874 5871 5870 5869 5868 5869 5870 5870 5871 5872 5872 5871 5873 5876 5878 5879 5880 5881 5882 5883 5883 5882 5882 5883 5883 5883 5883 5882 5882 5882 5881 5880 5879
5865 5867 5869 5868 5871 5875 5875 5876 5876 5878 5878 5878 5879 5878 5876 5876 5874 5872 5871 5870 5869 5870 5871 5871 5873 5874 5874 5873 5874 5877 5879 5880 5881 5882 5883 5884 5884 5884 5884 5884 5884 5884 5884 5884 5883 5882 5882 5881 5880
5862 5865 5867 5866 5869 5872 5873 5875 5876 5877 5878 5878 5879 5879 5877 5876 5876 5874 5873 5873 5872 5872 5871 5873 5874 5876 5876 5877 5876 5878 5880 5882 5883 5884 5884 5884 5885 5885 5885 5885 5885 5885 5884 5884 5884 5883 5883 5882 5880
5858 5861 5863 5863 5866 5870 5871 5874 5875 5876 5876 5877 5879 5878 5877 5876 5876 5875 5874 5875 5873 5874 5874 5874 5875 5878 5879 5878 5880 5880 5881 5882 5883 5884 5885 5885 5885 5885 5886 5886 5886 5886 5886 5885 5885 5884 5883 5882 5881
5854 5857 5859 5859 5863 5867 5868 5873 5874 5874 5875 5876 5878 5877 5877 5876 5877 5877 5876 5876 5875 5875 5876 5876 5877 5878 5880 5881 5881 5882 5883 5883 5883 5884 5884 5885 5885 5886 5886 5887 5887 5887 5887 5887 5886 5885 5884 5882 5882
5850 5854 5855 5854 5860 5864 5866 5870 5872 5872 5874 5875 5877 5877 5876 5876 5876 5877 5877 5877 5877 5876 5877 5878 5878 5879 5880 5881 5882 5883 5884 5884 5884 5884 5884 5885 5885 5886 5887 5887 5888 5888 5887 5887 5886 5886 5885 5884 5882
5848 5849 5850 5853 5857 5860 5864 5868 5870 5871 5872 5873 5874 5875 5875 5876 5876 5876 5876 5877 5878 5878 5878 5878 5879 5880 5880 5881 5883 5883 5884 5885 5885 5885 5885 5885 5885 5885 5886 5886 5886 5886 5886 5887 5887 5886 5885 5884 5881
5845 5847 5849 5850 5854 5857 5860 5865 5867 5868 5870 5870 5872 5873 5874 5876 5875 5875 5875 5876 5877 5878 5879 5879 5879 5880 5880 5881 5882 5885 5884 5885 5885 5886 5886 5885 5885 5885 5885 5885 5886 5886 5886 5886 5885 5885 5884 5882 5881
5841 5845 5845 5847 5853 5855 5857 5861 5864 5867 5868 5869 5870 5872 5873 5875 5874 5874 5875 5875 5876 5877 5878 5879 5880 5880 5881 5882 5881 5881 5883 5884 5884 5884 5884 5885 5885 5884 5883 5884 5884 5885 5885 5885 5884 5883 5882 5881 5879
5839 5841 5840 5844 5848 5852 5854 5857 5859 5864 5865 5866 5869 5870 5871 5873 5873 5873 5874 5874 5874 5875 5876 5877 5878 5880 5881 5881 5881 5881 5881 5880 5882 5883 5884 5884 5883 5883 5883 5883 5882 5882 5883 5883 5882 5881 5880 5878 5877
5835 5837 5837 5840 5844 5849 5850 5852 5856 5859 5862 5863 5866 5868 5868 5870 5872 5873 5872 5872 5873 5873 5874 5875 5876 5878 5879 5880 5880 5880 5880 5880 5880 5880 5881 5882 5883 5883 5882 5882 5881 5880 5879 5879 5879 5878 5877 5874 5873
5829 5832 5832 5836 5840 5842 5845 5848 5852 5856 5859 5860 5862 5864 5866 5867 5869 5870 5870 5871 5871 5871 5872 5872 5873 5874 5877 5878 5879 5878 5878 5879 5880 5879 5879 5880 5880 5879 5879 5878 5877 5877 5877 5876 5875 5874 5873 5872 5871
5823 5825 5826 5830 5835 5838 5841 5844 5849 5852 5854 5855 5858 5861 5863 5864 5866 5868 5868 5869 5868 5869 5869 5870 5870 5871 5872 5874 5876 5877 5876 5876 5877 5876 5876 5876 5876 5876 5875 5874 5873 5874 5873 5873 5872 5870 5870 5869 5867
5815 5820 5821 5825 5830 5834 5837 5841 5846 5845 5848 5852 5854 5857 5859 5861 5863 5865 5866 5866 5866 5867 5866 5866 5868 5869 5869 5871 5872 5873 5874 5874 5873 5872 5872 5873 5873 5873 5873 5873 5873 5872 5870 5870 5868 5867 5866 5864 5862
5809 5813 5815 5819 5823 5829 5831 5839 5839 5840 5845 5848 5850 5853 5855 5857 5859 5861 5862 5864 5863 5864 5864 5864 5865 5865 5866 5866 5868 5869 5869 5869 5870 5870 5869 5869 5868 5869 5869 5870 5869 5868 5867 5865 5864 5862 5859 5857 5856
5801 5806 5810 5815 5819 5822 5825 5834 5833 5837 5841 5843 5845 5847 5851 5853 5855 5855 5858 5860 5861 5860 5861 5861 5861 5862 5863 5863 5864 5865 5865 5865 5866 5867 5866 5866 5866 5866 5866 5865 5863 5862 5861 5860 5858 5856 5854 5852 5849
5796 5801 5805 5810 5814 5817 5822 5830 5828 5831 5834 5838 5842 5844 5847 5849 5850 5851 5854 5856 5858 5858 5858 5859 5859 5859 5860 5859 5860 5861 5862 5863 5863 5862 5862 5863 5863 5862 5860 5859 5858 5857 5856 5854 5853 5851 5849 5847 5844
5788 5793 5797 5803 5807 5809 5815 5822 5820 5823 5828 5835 5839 5840 5842 5844 5844 5849 5850 5852 5854 5855 5854 5856 5856 5857 5858 5858 5857 5857 5858 5859 5859 5859 5858 5857 5857 5858 5857 5855 5854 5853 5851 5849 5848 5846 5844 5842 5839
5779 5784 5789 5795 5799 5802 5807 5814 5816 5817 5820 5830 5833 5837 5837 5839 5842 5844 5845 5847 5848 5850 5852 5852 5852 5853 5854 5853 5854 5854 5854 5855 5855 5855 5854 5853 5853 5853 5852 5851 5849 5848 5847 5845 5842 5839 5837 5834 5832
5771 5777 5782 5786 5791 5793 5798 5803 5810 5813 5815 5823 5828 5832 5834 5836 5838 5840 5843 5843 5843 5844 5846 5847 5847 5848 5849 5850 5851 5851 5852 5852 5851 5850 5849 5849 5849 5848 5848 5846 5845 5843 5841 5839 5836 5833 5831 5827 5823
5762 5769 5772 5775 5780 5786 5789 5791 5804 5808 5811 5816 5822 5827 5831 5831 5832 5834 5837 5839 5840 5838 5838 5841 5842 5842 5844 5845 5846 5847 5847 5848 5846 5847 5846 5844 5843 5843 5842 5841 5839 5837 5834 5832 5828 5824 5821 5818 5814
5756 5759 5761 5765 5768 5774 5780 5780 5794 5801 5805 5811 5819 5821 5824 5826 5826 5827 5831 5833 5835 5834 5834 5836 5838 5839 5840 5841 5842 5841 5842 5843 5842 5842 5841 5841 5838 5837 5836 5833 5830 5828 5825 5823 5819 5815 5812 5809 5806
5746 5748 5751 5756 5759 5758 5774 5774 5776 5794 5800 5806 5810 5814 5817 5818 5822 5823 5824 5826 5829 5831 5832 5832 5832 5834 5836 5837 5837 5836 5836 5836 5836 5835 5834 5833 5833 5831 5829 5825 5822 5820 5817 5813 5810 5806 5804 5800 5797
5735 5740 5743 5745 5744 5757 5761 5761 5772 5787 5794 5800 5802 5804 5810 5813 5816 5819 5819 5820 5822 5824 5827 5827 5828 5829 5830 5831 5832 5831 5831 5830 5830 5828 5827 5826 5824 5822 5819 5816 5814 5810 5807 5804 5801 5798 5795 5792 5788
5734 5734 5737 5739 5740 5752 5748 5756 5767 5775 5791 5795 5797 5799 5802 5807 5809 5812 5814 5815 5815 5818 5820 5821 5823 5824 5823 5824 5824 5824 5825 5824 5823 5822 5819 5818 5816 5813 5810 5807 5804 5802 5798 5795 5792 5789 5786 5782 5778
5719 5716 5735 5729 5731 5734 5737 5752 5757 5762 5780 5787 5791 5792 5795 5798 5800 5804 5807 5809 5811 5811 5812 5814 5815 5817 5818 5817 5816 5816 5815 5815 5815 5813 5811 5810 5808 5805 5802 5798 5794 5791 5789 5786 5783 5779 5776 5771 5767
5706 5724 5715 5718 5724 5726 5732 5738 5748 5759 5768 5778 5781 5785 5787 5789 5793 5796 5799 5801 5803 5804 5805 5807 5808 5808 5809 5810 5809 5808 5806 5805 5804 5802 5802 5800 5798 5795 5792 5788 5785 5781 5778 5776 5773 5769 5765 5760 5757
5702 5698 5705 5714 5716 5719 5724 5727 5744 5749 5755 5765 5772 5775 5777 5780 5784 5787 5789 5792 5795 5797 5798 5799 5799 5800 5800 5800 5800 5800 5798 5797 5795 5794 5793 5790 5787 5784 5782 5779 5776 5773 5769 5765 5761 5758 5753 5749 5745
5686 5689 5696 5696 5708 5715 5717 5721 5736 5741 5745 5753 5761 5764 5767 5770 5774 5777 5779 5782 5784 5786 5788 5789 5789 5789 5789 5789 5788 5788 5788 5787 5785 5784 5783 5781 5778 5775 5772 5769 5765 5762 5757 5753 5749 5745 5741 5737 5734